カタログに戻る

RASSVET-1 NO. 2

運用中通信SSO
NORAD 57183·PAYLOAD·🇷🇺 Russia
この衛星名は、まだ公式ソースで確認されていません。

打ち上げ Jun 27, 2023 から Vostochny Cosmodrome

Loading…

次のパス (今後24時間)

TLE

最新Source: Space-Track

元期: Sep 14, 2026, 10:38 UTC

1 57183U 23091T   26257.44354262  .00003715  00000-0  17716-3 0  9992
2 57183  97.4994 315.5218 0011755 152.4167 207.7693 15.19664488177526

AllMySatでRASSVET-1 NO. 2をリアルタイム追跡

Download on the App Store